Wind_Speed
4 4 5 5 5 5 5 5 5 5 5 4 4 3 2 3 3 4 4 3 3 2 2 2 2 2 2 3 3 2 2 3 3 2 2 2 2 1 2 2 3 4 4 4 5 5 6 6 7
4 5 5 5 5 5 5 5 6 6 5 5 4 4 3 4 4 4 4 3 3 3 3 2 2 3 3 3 3 3 3 4 4 3 2 2 2 1 2 2 3 4 5 5 5 6 6 6 8
4 4 5 5 5 5 5 6 6 6 5 5 5 4 4 4 4 4 4 4 4 4 3 3 2 3 4 4 4 4 4 4 4 3 3 2 2 2 2 2 3 4 4 5 6 6 6 7 8
4 5 5 5 6 6 6 6 6 6 5 5 5 4 4 5 5 5 5 5 4 4 3 3 3 3 3 4 4 4 4 4 4 3 3 3 3 3 3 3 3 4 5 5 6 6 6 6 6
4 5 5 5 6 7 7 7 7 7 6 6 6 5 5 6 6 5 6 6 5 4 4 4 3 4 3 3 4 4 4 4 3 3 3 3 3 4 3 3 4 4 5 5 6 6 6 6 7
5 5 5 6 6 7 8 8 7 7 7 7 6 6 6 6 6 5 6 6 6 5 5 5 4 4 3 3 3 4 4 3 3 3 3 3 3 3 3 4 4 5 5 5 6 6 7 7 7
6 6 6 6 7 7 8 8 8 8 7 7 7 6 6 6 6 6 6 6 6 5 5 5 5 4 4 4 3 3 4 3 3 3 3 3 4 4 4 4 5 5 5 5 6 6 6 7 7
6 7 7 7 7 8 8 8 8 8 8 8 8 7 7 6 6 6 6 6 6 6 5 5 5 4 4 4 3 4 4 4 3 4 4 4 5 5 5 5 5 5 5 5 5 6 6 7 7
8 8 8 8 8 8 9 9 9 9 8 8 8 8 7 7 6 6 6 6 6 5 5 5 5 4 4 4 3 4 4 4 4 4 4 5 5 5 5 5 5 5 5 5 5 6 6 7 7
8 8 8 9 9 9 9 9 10 9 8 8 8 8 8 7 7 6 6 5 5 5 5 5 5 4 4 3 4 4 4 4 4 4 5 5 5 5 5 5 5 5 5 5 5 5 6 6 7
8 9 9 9 10 10 10 10 10 9 9 8 8 8 7 7 6 6 5 5 4 4 5 5 4 4 4 4 4 4 4 4 5 5 5 5 6 6 5 5 5 5 4 4 4 4 5 5 6
9 9 9 9 10 10 10 10 10 9 9 9 8 8 8 7 6 6 5 5 4 5 5 5 4 4 4 4 4 4 4 4 5 6 6 6 6 5 5 5 4 4 3 3 3 3 4 5 5
9 9 9 9 10 10 10 10 10 10 10 10 9 8 8 8 8 7 6 5 5 5 5 6 5 5 4 4 4 4 4 4 5 6 7 7 6 5 5 4 4 3 3 3 3 3 4 4 5
8 8 8 9 10 10 10 10 10 10 10 10 9 9 8 9 9 8 7 6 6 6 5 6 5 5 4 4 4 4 4 4 5 6 6 7 7 6 5 4 4 3 3 3 3 3 3 4 4
8 8 9 9 9 10 10 10 10 10 10 10 9 9 9 9 9 9 8 7 7 6 6 6 5 5 5 4 4 4 4 4 5 6 6 7 7 6 5 4 4 3 3 3 3 3 3 3 2
8 9 9 9 9 10 10 10 10 10 10 10 9 10 9 9 8 8 8 7 7 7 6 6 5 5 5 5 4 4 4 4 5 6 6 6 6 5 5 5 4 4 4 4 3 3 3 2 2
8 9 10 10 10 10 10 10 10 10 10 10 10 10 9 8 8 8 8 7 8 7 6 5 5 5 5 5 4 4 4 4 4 5 6 6 6 5 5 5 4 4 4 4 3 3 2 2 2
8 9 10 10 10 10 10 10 10 10 10 10 9 9 9 8 8 8 8 7 7 7 7 6 6 5 5 5 4 4 4 4 4 5 4 5 5 5 5 5 4 4 3 4 4 3 3 2 2
9 9 9 10 10 10 10 10 11 11 10 10 9 10 10 10 9 9 8 7 7 6 6 5 6 5 5 5 4 4 4 4 4 4 3 4 5 5 5 4 4 4 4 3 3 3 3 3 3
9 10 10 9 9 10 10 10 11 10 10 11 10 11 10 10 10 9 8 7 7 6 6 6 5 6 5 5 4 4 4 4 4 3 3 4 5 5 5 4 4 4 4 3 3 3 3 3 3
10 10 10 9 10 10 10 10 11 10 11 11 11 10 10 11 9 9 8 7 7 6 6 6 6 5 5 4 4 3 3 3 3 3 3 3 4 4 5 5 4 4 4 3 3 3 3 3 3
10 9 10 10 10 10 10 11 11 11 10 10 11 10 10 10 9 9 8 7 7 6 6 6 7 6 5 4 4 4 4 3 2 2 3 3 3 4 4 5 4 4 4 3 3 3 3 3 3
10 9 10 10 9 9 9 11 11 11 11 10 10 9 9 9 9 9 8 7 7 7 7 7 7 7 6 5 4 4 4 3 3 3 3 3 3 3 4 4 4 4 4 3 3 3 3 3 4
10 10 10 9 9 9 9 10 11 11 11 10 9 8 8 8 8 9 7 7 7 7 7 7 7 6 6 5 5 4 5 5 4 4 4 3 2 3 4 4 4 4 4 4 4 3 3 4 4
10 10 9 9 9 9 9 10 10 10 10 9 8 8 8 8 8 8 7 7 6 6 6 6 6 7 7 6 5 5 5 5 5 5 4 3 2 3 3 4 4 4 4 3 4 4 4 4 5
9 9 8 7 7 8 9 9 10 10 9 9 9 9 9 9 8 8 7 6 6 6 6 6 7 7 7 6 6 6 6 6 5 5 4 3 3 3 4 4 4 4 4 4 4 4 4 5 5
10 9 8 8 8 8 8 10 10 9 9 9 9 10 10 10 9 9 8 7 7 6 6 6 6 7 7 6 6 6 6 6 6 5 4 4 4 4 4 4 5 5 4 5 5 5 6 6 6
10 10 9 9 8 9 9 10 11 9 9 9 10 10 11 11 10 10 9 8 8 7 7 6 6 6 6 6 5 5 5 6 6 5 4 4 5 5 5 5 6 6 6 6 6 6 7 7 7
10 10 10 10 9 9 10 11 12 12 10 9 10 11 11 11 10 10 9 8 8 8 7 7 6 7 6 6 5 5 5 4 4 5 5 5 5 5 6 6 7 7 8 8 8 8 8 8 9
11 11 11 11 11 11 11 11 13 13 11 10 11 11 11 10 9 8 8 8 9 8 8 7 7 7 7 7 6 6 6 6 6 6 6 6 6 6 7 7 8 8 9 9 9 9 9 10 10
Wind_Direction
2 2 358 350 344 345 351 346 342 334 327 328 320 312 307 315 317 309 314 317 318 316 314 325 333 325 323 327 330 340 344 346 340 336 321 316 307 292 272 252 255 253 246 236 233 230 227 225 225
355 354 350 344 337 338 340 334 334 328 324 325 322 311 303 310 316 310 313 317 315 306 302 317 332 328 325 325 332 336 339 343 343 334 320 320 312 294 276 262 260 257 249 243 239 234 232 232 232
349 350 349 343 350 338 330 329 329 323 316 310 309 308 304 308 314 308 313 320 317 306 305 303 320 330 329 329 336 346 346 343 345 340 337 332 321 301 290 281 275 269 264 259 250 241 235 234 233
335 343 337 346 345 335 328 332 326 317 314 306 306 310 301 302 300 299 306 318 320 310 307 307 319 324 328 333 337 340 344 347 351 348 347 346 329 318 307 295 284 278 273 263 257 250 244 233 233
324 324 333 338 336 333 330 325 319 314 306 306 304 305 301 302 298 292 297 304 312 308 306 309 309 316 319 329 333 334 336 338 349 351 348 348 335 329 319 300 291 288 280 268 257 255 252 246 243
310 314 321 322 328 325 324 321 315 315 305 301 303 301 300 304 302 297 292 298 303 300 304 307 306 310 308 318 330 332 333 338 347 347 344 339 330 322 310 300 294 288 281 271 262 260 253 247 244
298 300 304 309 314 315 316 318 316 315 310 303 303 304 298 297 300 298 299 302 301 290 295 305 305 307 305 311 319 328 333 337 340 340 341 334 325 317 312 306 295 286 281 276 265 261 258 248 244
290 289 293 299 305 307 310 312 312 308 306 307 304 302 299 295 296 297 298 303 299 294 293 296 300 305 306 313 314 324 333 340 338 337 339 334 328 322 319 312 303 292 285 279 270 266 264 257 249
288 287 290 294 297 301 304 302 302 304 305 305 305 301 299 296 298 300 296 297 300 298 299 297 304 305 304 306 317 328 334 337 340 343 339 332 328 327 325 318 310 300 291 283 276 271 266 262 254
286 288 289 292 296 299 301 298 297 299 301 304 307 304 300 294 294 297 294 292 295 301 304 309 311 307 311 314 322 330 336 343 343 342 339 336 332 326 325 322 315 307 301 293 283 274 267 260 255
287 287 288 288 292 296 298 295 293 297 299 300 303 305 302 295 291 295 295 294 294 299 305 314 316 310 312 318 323 329 333 346 352 350 342 339 337 333 329 329 321 313 306 298 289 278 270 262 255
289 288 288 287 288 293 296 297 296 296 298 299 300 302 298 299 296 295 291 293 293 296 295 296 307 310 312 314 322 324 335 347 351 353 350 344 343 343 335 330 325 322 315 308 300 288 276 267 259
291 290 288 286 286 290 292 292 291 295 295 294 297 297 299 297 295 294 288 284 286 292 289 286 297 301 304 312 317 319 326 341 347 350 354 352 350 349 344 340 337 333 327 323 322 308 288 280 271
292 292 291 290 289 289 289 289 289 292 293 293 295 294 297 296 294 291 284 282 283 286 289 288 292 295 299 302 307 317 322 332 340 345 350 354 357 353 345 344 342 342 342 338 332 319 302 291 276
294 295 293 292 294 293 291 291 290 290 293 295 292 290 292 293 291 292 288 282 279 283 285 287 289 290 298 299 297 310 317 328 337 347 350 353 356 355 353 348 345 349 350 342 333 325 315 303 286
293 295 294 292 291 294 293 293 291 291 292 292 293 291 289 292 293 293 290 281 278 279 281 281 278 281 293 300 295 307 311 322 338 343 346 353 355 1 7 6 1 0 357 351 342 338 330 320 314
292 292 293 292 290 293 294 297 295 292 293 293 292 289 290 291 294 295 291 280 273 274 278 271 270 278 284 286 291 305 313 316 330 337 340 350 351 357 5 6 360 360 3 4 358 354 347 344 346
294 296 297 294 294 293 295 297 293 294 295 295 297 294 288 294 295 296 295 285 277 271 269 263 264 269 267 271 286 299 310 312 320 329 340 349 349 354 1 4 3 5 9 11 17 17 9 1 353
290 292 295 294 292 293 296 294 293 294 293 291 290 292 290 290 292 291 291 286 278 275 261 263 264 264 267 270 282 295 307 313 318 324 331 343 349 354 358 3 5 9 12 14 16 20 14 3 358
286 288 291 291 291 294 292 292 291 291 292 289 287 290 287 290 288 287 288 282 274 267 264 266 262 260 264 270 274 292 300 306 315 324 333 343 348 353 359 358 360 2 6 9 13 14 9 6 5
282 287 288 288 289 293 296 297 292 290 290 289 285 286 286 288 286 285 286 279 274 269 268 265 259 258 261 267 264 281 293 299 314 325 338 340 347 356 356 359 1 2 3 1 359 357 354 356 355
283 285 289 287 289 296 299 300 293 292 290 288 287 283 283 285 287 287 283 278 271 266 264 264 263 260 258 264 264 273 285 285 307 325 337 342 353 359 360 0 0 0 1 360 357 348 342 338 334
282 282 284 287 293 297 300 301 297 293 292 291 290 286 285 284 285 287 284 275 270 263 261 260 263 258 259 261 260 262 270 275 285 301 319 330 344 352 360 2 5 4 359 357 356 351 349 345 340
281 278 280 285 291 293 299 300 296 295 296 293 286 286 288 287 286 288 283 272 267 262 261 255 253 251 254 257 258 267 270 272 269 280 296 305 318 342 354 354 358 3 3 359 355 349 345 342 336
279 276 280 286 295 300 301 298 298 297 295 291 288 286 286 284 287 288 285 273 263 260 256 254 253 249 247 253 262 270 268 268 267 273 275 282 286 315 335 344 350 354 354 349 349 350 352 345 337
277 274 276 281 289 292 301 301 302 299 296 292 290 286 282 279 282 285 282 271 262 258 254 253 247 245 244 249 263 269 266 263 263 266 265 264 280 300 313 324 333 340 339 332 331 332 333 333 335
277 271 272 268 265 275 294 300 297 291 291 290 288 284 281 280 278 278 276 268 261 259 255 250 243 237 241 252 263 266 263 256 253 255 255 259 273 289 298 303 310 313 317 322 321 318 320 322 323
275 273 267 263 264 267 276 287 293 291 284 285 289 285 278 276 274 272 268 263 260 259 253 246 239 234 239 250 258 262 266 262 247 245 251 259 269 281 290 296 303 307 307 308 308 308 311 313 315
272 269 265 262 260 263 266 275 289 293 284 284 286 284 279 274 272 269 262 256 252 251 245 237 238 236 238 245 254 258 261 253 247 250 255 262 270 280 286 289 296 303 304 299 298 300 300 303 307
273 267 266 264 260 258 267 276 283 284 285 287 289 286 279 273 270 268 260 252 250 247 241 238 234 234 237 245 253 254 252 248 250 258 261 266 273 279 285 288 292 296 299 298 296 297 296 297 300
Height
5888 5888 5888 5888 5888 5888 5887 5886 5885 5885 5884 5884 5883 5883 5883 5883 5884 5886 5884 5882 5882 5882 5882 5882 5881 5881 5881 5880 5880 5879 5879 5878 5878 5877 5877 5877 5877 5877 5876 5877 5877 5877 5877 5878 5878 5878 5879 5880 5880
5888 5888 5889 5888 5887 5887 5887 5885 5885 5885 5884 5884 5883 5884 5883 5883 5883 5883 5882 5882 5882 5882 5882 5882 5881 5881 5880 5880 5880 5879 5879 5878 5877 5877 5876 5876 5876 5876 5876 5876 5876 5876 5877 5877 5877 5878 5878 5879 5879
5889 5889 5889 5888 5887 5887 5886 5885 5885 5884 5884 5884 5884 5884 5884 5883 5883 5883 5882 5882 5882 5882 5881 5881 5881 5881 5880 5880 5880 5879 5878 5878 5877 5877 5876 5876 5876 5875 5875 5875 5875 5876 5876 5876 5876 5877 5877 5878 5878
5889 5889 5889 5888 5887 5886 5886 5885 5885 5884 5884 5883 5884 5884 5883 5883 5883 5882 5882 5882 5882 5881 5881 5881 5881 5881 5880 5880 5879 5879 5878 5877 5877 5876 5876 5875 5875 5875 5875 5875 5875 5875 5875 5875 5875 5875 5876 5876 5877
5888 5889 5888 5887 5886 5886 5885 5885 5885 5884 5883 5883 5883 5883 5882 5883 5882 5882 5882 5882 5882 5881 5881 5881 5880 5880 5880 5879 5879 5878 5877 5877 5876 5876 5876 5875 5875 5875 5874 5874 5874 5874 5874 5874 5874 5874 5875 5875 5876
5888 5888 5887 5886 5886 5886 5885 5884 5884 5884 5883 5882 5883 5883 5882 5882 5882 5882 5881 5881 5881 5881 5881 5880 5880 5879 5879 5879 5878 5878 5877 5877 5876 5876 5875 5875 5874 5874 5874 5873 5873 5873 5873 5873 5873 5873 5874 5874 5875
5888 5887 5886 5885 5885 5885 5885 5884 5883 5883 5882 5882 5882 5882 5881 5881 5881 5881 5881 5881 5881 5881 5880 5880 5879 5879 5879 5878 5878 5877 5877 5876 5876 5875 5875 5874 5874 5873 5873 5872 5872 5872 5872 5872 5872 5872 5872 5873 5874
5886 5887 5885 5885 5884 5884 5884 5883 5883 5882 5882 5882 5882 5882 5881 5881 5881 5881 5881 5880 5880 5880 5880 5879 5879 5879 5878 5878 5878 5877 5877 5876 5876 5875 5875 5874 5873 5873 5872 5872 5871 5871 5871 5870 5871 5871 5871 5872 5872
5885 5886 5884 5884 5884 5884 5883 5883 5882 5881 5881 5881 5881 5881 5881 5880 5880 5880 5880 5880 5879 5879 5879 5878 5878 5878 5878 5878 5877 5877 5876 5876 5875 5875 5874 5873 5873 5872 5871 5871 5870 5870 5870 5869 5869 5870 5870 5870 5871
5884 5883 5883 5883 5883 5883 5882 5882 5881 5881 5881 5880 5880 5879 5879 5879 5879 5879 5879 5879 5879 5879 5878 5878 5877 5877 5877 5877 5877 5877 5876 5876 5875 5875 5874 5873 5872 5872 5871 5870 5870 5869 5869 5868 5868 5868 5869 5869 5869
5882 5882 5882 5881 5881 5881 5881 5881 5880 5880 5879 5879 5879 5879 5878 5878 5878 5878 5878 5878 5878 5878 5877 5877 5877 5877 5877 5877 5877 5876 5876 5875 5875 5874 5873 5872 5872 5871 5870 5869 5869 5868 5868 5867 5867 5867 5868 5868 5868
5881 5880 5880 5880 5880 5880 5880 5879 5879 5879 5879 5878 5878 5877 5877 5877 5877 5877 5877 5877 5877 5877 5877 5877 5876 5876 5876 5876 5876 5876 5875 5875 5874 5873 5872 5872 5871 5870 5869 5869 5868 5868 5867 5867 5867 5867 5867 5867 5867
5879 5879 5879 5879 5879 5879 5878 5878 5878 5877 5877 5877 5876 5876 5876 5876 5876 5876 5876 5876 5876 5876 5876 5876 5876 5876 5876 5876 5875 5875 5875 5874 5874 5873 5872 5871 5870 5870 5869 5868 5867 5867 5867 5866 5866 5866 5866 5866 5866
5878 5878 5878 5877 5877 5877 5877 5877 5877 5876 5876 5875 5875 5875 5875 5875 5875 5875 5875 5875 5875 5875 5875 5875 5875 5875 5875 5875 5875 5875 5874 5874 5874 5873 5872 5871 5870 5869 5868 5868 5867 5867 5866 5866 5866 5865 5865 5865 5866
5877 5877 5877 5876 5876 5876 5876 5876 5875 5875 5874 5874 5874 5874 5874 5874 5874 5874 5874 5874 5874 5874 5874 5874 5874 5874 5874 5875 5874 5874 5874 5874 5873 5873 5872 5871 5870 5869 5868 5868 5867 5866 5866 5866 5865 5865 5865 5865 5865
5876 5876 5875 5875 5875 5874 5876 5875 5874 5873 5873 5873 5872 5872 5872 5872 5872 5872 5872 5872 5872 5872 5873 5873 5873 5873 5874 5874 5874 5874 5873 5873 5873 5872 5872 5871 5870 5869 5868 5868 5867 5866 5866 5866 5865 5865 5865 5865 5865
5874 5874 5874 5874 5873 5873 5873 5873 5872 5871 5872 5871 5871 5871 5871 5871 5871 5871 5871 5871 5871 5871 5872 5872 5872 5873 5873 5873 5873 5873 5873 5873 5872 5872 5872 5871 5871 5870 5869 5868 5868 5867 5866 5866 5865 5865 5865 5865 5865
5873 5872 5872 5872 5871 5872 5871 5871 5871 5870 5870 5870 5869 5869 5870 5870 5870 5870 5870 5870 5870 5870 5870 5871 5871 5872 5872 5873 5873 5873 5873 5873 5872 5872 5872 5871 5871 5870 5869 5868 5868 5867 5867 5866 5866 5865 5865 5865 5865
5871 5871 5870 5870 5870 5870 5869 5869 5869 5869 5869 5868 5868 5868 5868 5868 5868 5869 5868 5868 5868 5868 5869 5870 5870 5871 5871 5872 5872 5872 5872 5872 5872 5872 5871 5871 5871 5870 5869 5869 5868 5868 5867 5867 5866 5866 5865 5865 5865
5870 5869 5869 5869 5868 5868 5868 5867 5867 5867 5867 5867 5867 5866 5866 5867 5867 5867 5867 5867 5867 5867 5868 5869 5869 5870 5871 5871 5871 5872 5872 5872 5872 5872 5871 5871 5871 5870 5870 5869 5868 5868 5867 5867 5866 5866 5866 5865 5865
5868 5868 5868 5867 5867 5866 5867 5866 5866 5865 5865 5865 5865 5865 5865 5865 5865 5866 5866 5866 5866 5866 5867 5867 5868 5869 5869 5870 5870 5871 5871 5871 5871 5871 5871 5871 5871 5870 5870 5869 5869 5868 5868 5867 5867 5866 5866 5866 5866
5866 5866 5866 5866 5865 5865 5865 5865 5864 5863 5863 5863 5863 5863 5863 5863 5863 5864 5864 5864 5865 5865 5865 5866 5867 5868 5869 5869 5870 5870 5871 5871 5871 5871 5871 5871 5870 5870 5870 5869 5869 5868 5868 5867 5867 5866 5866 5866 5866
5865 5864 5864 5864 5864 5864 5863 5863 5863 5861 5862 5862 5861 5861 5861 5862 5862 5862 5862 5863 5863 5864 5864 5865 5866 5867 5867 5868 5869 5870 5870 5870 5871 5871 5871 5871 5871 5871 5870 5870 5869 5869 5868 5868 5867 5867 5866 5866 5866
5862 5863 5863 5863 5862 5863 5862 5862 5861 5860 5860 5860 5860 5860 5860 5860 5860 5860 5861 5861 5862 5862 5863 5864 5864 5865 5866 5867 5868 5869 5869 5870 5870 5870 5870 5870 5870 5871 5870 5870 5869 5869 5868 5868 5867 5867 5866 5866 5866
5861 5861 5861 5861 5861 5861 5861 5861 5861 5859 5859 5859 5859 5859 5859 5859 5859 5859 5859 5859 5860 5861 5862 5862 5863 5864 5865 5866 5867 5867 5868 5869 5869 5869 5870 5870 5870 5870 5870 5870 5869 5869 5868 5868 5868 5867 5867 5866 5866
5858 5859 5860 5860 5860 5860 5860 5859 5860 5858 5858 5858 5858 5857 5857 5858 5858 5858 5858 5858 5859 5860 5861 5861 5862 5863 5864 5865 5866 5866 5867 5867 5868 5868 5869 5869 5870 5870 5870 5870 5869 5869 5868 5868 5868 5867 5867 5866 5866
5857 5857 5858 5858 5858 5858 5859 5858 5858 5857 5857 5857 5856 5856 5856 5856 5856 5856 5856 5857 5858 5859 5859 5860 5861 5862 5863 5864 5864 5865 5865 5866 5866 5867 5868 5868 5869 5869 5869 5869 5869 5869 5868 5868 5867 5867 5867 5866 5865
5855 5855 5856 5856 5856 5857 5857 5856 5855 5854 5855 5855 5855 5854 5854 5854 5854 5854 5855 5855 5856 5857 5858 5858 5860 5861 5862 5862 5863 5863 5864 5864 5865 5866 5866 5867 5867 5868 5868 5868 5868 5868 5867 5867 5867 5866 5866 5865 5864
5853 5853 5853 5854 5854 5855 5855 5856 5853 5853 5853 5853 5853 5852 5851 5852 5852 5852 5853 5853 5854 5855 5856 5857 5858 5859 5860 5861 5862 5863 5863 5864 5864 5865 5866 5866 5866 5866 5867 5867 5867 5866 5866 5866 5865 5865 5864 5864 5863
5850 5851 5851 5852 5852 5852 5853 5855 5851 5851 5851 5851 5851 5850 5850 5850 5850 5850 5851 5852 5853 5854 5855 5856 5857 5858 5859 5860 5860 5861 5862 5862 5863 5864 5864 5865 5865 5865 5865 5865 5865 5865 5864 5864 5864 5863 5863 5862 5862